Flag for Canada Weather past 2 weeks in Rae-Edzo, Northwest Territories, Canada

Now
55 °F

Cool.


Feels Like: 55 °F
Forecast: 59 / 75 °F
Wind: 3 mph from Northwest

Location: Lac La Martre

Current Time: Jul 25, 2014 at 8:51:39 AM

Latest Report: Jul 25, 2014 at 8:00 AM


Visibility: N/A

Pressure: 29.73 "Hg

Humidity: 91%

Dew point: 52 °F

Location of Rae-EdzoLocation

Historic Weather in Rae-Edzo — Graph

°F

Rae-Edzo temperature yesterday

Maximum temperature yesterday: 83 °F (at 4:00 PM)
Minimum temperature yesterday: 60 °F (at 5:00 AM)
Average temperature yesterday: 72 °F

Past Weeks' High & Low Weather Summary

 TemperatureHumidityPressure
High86 °F (Jul 14, 1:00 PM)95% (Jul 25, 6:00 AM)30.11 "Hg (Jul 25, 6:00 AM)
Low31 °F (Jul 18, 3:00 AM)19% (Jul 24, 3:00 PM)29.58 "Hg (Jul 18, 10:00 PM)
Average63 °F55%29.83 "Hg
* Reported Jul 10 7:00 AM — Jul 25 7:00 AM, Rae-Edzo, Weather by CustomWeather, © 2014

Note: Actual official high and low records may vary slightly from our data, if they occured in-between our weather recording intervals... More about our weather records

Advertising

Rae-Edzo weather history for previous 24 hours

 ConditionsComfort  
Time TempWeatherWind HumidityBarometerVisibility
7:00 AM
Jul 25
51 °FCool.No wind95%29.74 "HgN/A
6:00 AM48 °FCool.2 mph95%29.73 "HgN/A
5:00 AM48 °FCool.2 mph88%29.71 "HgN/A
4:00 AM49 °FCool.1 mph84%29.70 "HgN/A
3:00 AM52 °FCool.3 mph80%29.68 "HgN/A
2:00 AM51 °FCool.1 mph85%29.68 "HgN/A
1:00 AM56 °FCool.2 mph80%29.67 "HgN/A
12:00 AM63 °FMild.1 mph68%29.66 "HgN/A
11:00 PM
Jul 24
69 °FMild.5 mph53%29.65 "HgN/A
10:00 PM74 °FMild.3 mph39%29.64 "HgN/A
9:00 PM78 °FPleasantly warm.5 mph35%29.63 "HgN/A
8:00 PM79 °FPleasantly warm.7 mph37%29.62 "HgN/A
7:00 PM79 °FPleasantly warm.8 mph34%29.62 "HgN/A
6:00 PM80 °FPleasantly warm.8 mph32%29.61 "HgN/A
5:00 PM83 °FPleasantly warm.10 mph20%29.60 "HgN/A
4:00 PM83 °FPleasantly warm.12 mph19%29.62 "HgN/A
3:00 PM83 °FPleasantly warm.15 mph19%29.62 "HgN/A
2:00 PM82 °FPleasantly warm.13 mph22%29.62 "HgN/A
1:00 PM80 °FPleasantly warm.10 mph25%29.63 "HgN/A
12:00 PM76 °FMild.5 mph29%29.64 "HgN/A
11:00 AM71 °FMild.5 mph48%29.64 "HgN/A
10:00 AM70 °FMild.3 mph49%29.64 "HgN/A
9:00 AM69 °FMild.2 mph50%29.65 "HgN/A
8:00 AM70 °FMild.6 mph50%29.66 "HgN/A
Weather by CustomWeather, © 2014

See weather overviewHow to use our weather pages